Regional Weather Roundup
Issued by NWS Little Rock, AR

Home | Current Version | Previous Version | Graphics & Text | Print | Product List | Glossary On
Versions: 1 2 3 4 5 6 7 8 9 10 11 12 13 14 15 16 17 18 19 20 21 22 23 24 25 26 27 28 29 30 31 32 33 34 35 36 37 38 39 40 41 42 43 44 45 46 47 48 49 50
000
ASUS44 KLZK 041205
RWRLZK

WEATHER ROUNDUP FOR ARKANSAS
NATIONAL WEATHER SERVICE LITTLE ROCK AR
700 AM CDT TUE AUG 04 2015

NOTE: "FAIR" INDICATES FEW OR NO CLOUDS BELOW 12,000 FEET WITH NO
SIGNIFICANT WEATHER AND/OR OBSTRUCTIONS TO VISIBILITY.

ARZ001-003-010-029-041300-
NORTHWEST ARKANSAS

CITY           SKY/WX    TMP DP  RH WIND       PRES   REMARKS
FAYETTEVILLE   PTCLDY    66  66 100 CALM      30.02R
6HR MIN TEMP:  65; 6HR MAX TEMP:  69;

FORT SMITH     PTCLDY    73  69  87 NE5       29.97R
6HR MIN TEMP:  73; 6HR MAX TEMP:  78;

HARRISON       FAIR      68  66  93 SE3       30.03R
6HR MIN TEMP:  67; 6HR MAX TEMP:  71;

BENTONVILLE    MOCLDY    72  63  73 S3        30.02R
6HR MIN TEMP:  70; 6HR MAX TEMP:  73;

ROGERS         MOCLDY    71  67  87 SE5       30.02R
6HR MIN TEMP:  71; 6HR MAX TEMP:  74;

SILOAM SPGS    MOCLDY    70  61  73 SE6       30.00R
6HR MIN TEMP:  70; 6HR MAX TEMP:  72;

HIGHFILL       MOCLDY    69  67  93 CALM      30.01R
6HR MIN TEMP:  68; 6HR MAX TEMP:  74;

SPRINGDALE     MOCLDY    70  64  83 CALM      30.03R
$$

ARZ004-005-016-041300-
NORTH CENTRAL ARKANSAS

CITY           SKY/WX    TMP DP  RH WIND       PRES   REMARKS
BATESVILLE     CLEAR     72  68  88 CALM      29.99R
6HR MIN TEMP:  72; 6HR MAX TEMP:  75;

FLIPPIN        CLEAR     70  64  83 CALM      29.99R
6HR MIN TEMP:  70; 6HR MAX TEMP:  73;

MTN HOME       CLEAR     70  69  97 CALM      30.01R
6HR MIN TEMP:  70; 6HR MAX TEMP:  76;

$$

ARZ040-041-041300-
WEST CENTRAL ARKANSAS

CITY           SKY/WX    TMP DP  RH WIND       PRES   REMARKS
MENA           PTCLDY    68  64  88 CALM      30.02R
MOUNT IDA      PTCLDY    68  66  93 CALM      29.99R
6HR MIN TEMP:  68; 6HR MAX TEMP:  71;

$$

ARZ009-017-025-026-028-041300-
NORTHEAST ARKANSAS

CITY           SKY/WX    TMP DP  RH WIND       PRES   REMARKS
JONESBORO      CLEAR     72  71  97 CALM      29.98R
6HR MIN TEMP:  71; 6HR MAX TEMP:  79;

NEWPORT        CLEAR     74  72  93 CALM      30.00R
6HR MIN TEMP:  74; 6HR MAX TEMP:  79;

WALNUT RIDGE   PTCLDY    73  70  88 CALM      29.98R
6HR MIN TEMP:  73; 6HR MAX TEMP:  79;

BLYTHEVILLE    CLEAR     76  74  93 S6        29.98R
6HR MIN TEMP:  74; 6HR MAX TEMP:  79;

$$

ARZ022-023-033-042-044-041300-
CENTRAL ARKANSAS

CITY           SKY/WX    TMP DP  RH WIND       PRES   REMARKS
LITTLE ROCK    MOCLDY    73  70  90 CALM      29.99R
6HR MIN TEMP:  72; 6HR MAX TEMP:  79;

N LITTLE ROCK    N/A     78  69  76 SW3       29.99R
6HR MIN TEMP:  76; 6HR MAX TEMP:  80;

JACKSONVILLE   CLEAR     71  68  92 CALM      29.98R
6HR MIN TEMP:  69; 6HR MAX TEMP:  74;

SEARCY         CLEAR     71  69  93 CALM      30.00R
6HR MIN TEMP:  70; 6HR MAX TEMP:  74;

HOT SPRINGS    PTCLDY    73  68  84 CALM      30.00R
6HR MIN TEMP:  72; 6HR MAX TEMP:  78;

RUSSELLVILLE   PTCLDY    69  68  96 CALM      29.99R
6HR MIN TEMP:  69; 6HR MAX TEMP:  73;

$$

ARZ036-041300-
EAST ARKANSAS

CITY           SKY/WX    TMP DP  RH WIND       PRES   REMARKS
WEST MEMPHIS   CLEAR     74  74 100 S3        29.98R FOG
6HR MIN TEMP:  71; 6HR MAX TEMP:  76;

$$

ARZ050-053-066-070-073-041300-
SOUTHWEST ARKANSAS

CITY           SKY/WX    TMP DP  RH WIND       PRES   REMARKS
ARKADELPHIA    FAIR      70  70 100 CALM      29.99R
6HR MIN TEMP:  70; 6HR MAX TEMP:  73;

CAMDEN         PTCLDY    70  66  88 CALM      29.97R
TEXARKANA      PTCLDY    74  67  78 CALM      29.97R
6HR MIN TEMP:  71; 6HR MAX TEMP:  78;

EL DORADO      CLEAR     72  67  84 CALM      29.98R
6HR MIN TEMP:  70; 6HR MAX TEMP:  74;

DE QUEEN       CLOUDY    71  70  96 CALM      29.96R
6HR MIN TEMP:  70; 6HR MAX TEMP:  73;

$$

ARZ056-057-069-041300-
SOUTHEAST ARKANSAS

CITY           SKY/WX    TMP DP  RH WIND       PRES   REMARKS
PINE BLUFF     CLEAR     72  70  93 CALM      29.98R
6HR MIN TEMP:  71; 6HR MAX TEMP:  74;

STUTTGART      CLEAR     75  70  83 CALM      29.99R
6HR MIN TEMP:  73; 6HR MAX TEMP:  81;

MONTICELLO     CLEAR     72  70  93 CALM      29.98R
6HR MIN TEMP:  72; 6HR MAX TEMP:  74;


$$





USA.gov is the U.S. government's official web portal to all federal, state and local government web resources and services.